Pasco, WA

9:51 AM PDT on May 25, 2018 (GMT -0700)
Tri-Cities

Weather History for KPSC - June, 2013

Change the Weather History Date:

Wednesday, June 26, 2013

  Actual Average Record
Temperature  
Mean Temperature 67 °F 70 °F  
Max Temperature 73 °F 86 °F 105 °F (2015)
Min Temperature 60 °F 53 °F 41 °F (2007)
Degree Days  
Heating Degree Days 0 1  
Month to date heating degree days 19 34  
Since 1 June heating degree days 19 34  
Since 1 July heating degree days 4726 5024  
Cooling Degree Days 2 5  
Month to date cooling degree days 72 86  
Year to date cooling degree days 118 119  
Since 1 June cooling degree days 72 86  
Growing Degree Days 16 (Base 50)    
Moisture  
Dew Point 57 °F    
Average Humidity 72    
Maximum Humidity 90    
Minimum Humidity 53    
Precipitation  
Precipitation 0.03 in 0.01 in 1.42 in (1942)
Month to date precipitation 0.88 0.63  
Year to date precipitation 2.76 4.88  
Snow  
Snow 0.00 in - - ()
Snow Depth 0.00 in    
Sea Level Pressure  
Sea Level Pressure 29.97 in    
Wind  
Wind Speed 6 mph (SSE)    
Max Wind Speed 13 mph    
Max Gust Speed 15 mph    
Visibility 10 miles    
Events Rain    
T = Trace of Precipitation, MM = Missing Value Source: NWS Daily Summary

Daily Weather History Graph

Daily Weather History Graph

Search for Another Location

Airport or City:

Astronomy

Jun. 26, 2013 Rise Set
Actual Time 5:06 AM PDT 8:52 PM PDT
Civil Twilight 4:27 AM PDT 9:31 PM PDT
Nautical Twilight 3:34 AM PDT 10:23 PM PDT
Astronomical Twilight 2:20 AM PDT 11:37 PM PDT
Moon 11:01 PM PDT (6/26) 9:17 AM PDT (6/26)
Length of Visible Light 17h 03m
Length of Day
15h 46m
Waning Gibbous, 84% of the Moon is Illuminated
Jun 26
Waning Gibbous
Jun 29
Last Quarter
Jul 8
New
Jul 15
First Quarter
Jul 22
Full

Hourly Weather History & Observations

Time (PDT) Temp. Dew Point Humidity Pressure Visibility Wind Dir Wind Speed Gust Speed Precip Events Conditions
12:53 AM 64.0 °F 55.0 °F 73% 29.89 in 10.0 mi South 11.5 mph - N/A   Clear
1:53 AM 63.0 °F 54.0 °F 72% 29.90 in 10.0 mi South 6.9 mph - N/A   Clear
2:53 AM 62.1 °F 55.0 °F 78% 29.90 in 10.0 mi SE 3.5 mph - N/A   Partly Cloudy
3:53 AM 60.1 °F 57.0 °F 90% 29.92 in 10.0 mi SE 6.9 mph - N/A   Partly Cloudy
4:53 AM 60.1 °F 57.0 °F 90% 29.92 in 10.0 mi ESE 3.5 mph - N/A   Clear
5:53 AM 61.0 °F 57.0 °F 87% 29.93 in 10.0 mi ESE 5.8 mph - N/A   Mostly Cloudy
6:53 AM 62.1 °F 57.0 °F 84% 29.94 in 10.0 mi Calm Calm - N/A   Mostly Cloudy
7:53 AM 63.0 °F 55.9 °F 78% 29.94 in 10.0 mi ESE 4.6 mph - N/A   Clear
8:53 AM 64.0 °F 57.0 °F 78% 29.94 in 10.0 mi Calm Calm - N/A   Clear
9:53 AM 66.9 °F 55.9 °F 68% 29.96 in 10.0 mi Calm Calm - N/A   Clear
10:53 AM 69.1 °F 52.0 °F 54% 29.97 in 10.0 mi Calm Calm - N/A   Clear
11:53 AM 70.0 °F 54.0 °F 57% 29.97 in 10.0 mi Calm Calm - 0.00 in   Overcast
12:53 PM 69.1 °F 55.0 °F 61% 29.98 in 7.0 mi Calm Calm - 0.01 in Rain Light Rain
1:53 PM 69.1 °F 57.9 °F 68% 29.97 in 10.0 mi Calm Calm - 0.02 in Rain Light Rain
2:53 PM 70.0 °F 57.9 °F 65% 29.99 in 10.0 mi South 5.8 mph - 0.00 in Rain Light Rain
3:53 PM 70.0 °F 59.0 °F 68% 30.00 in 10.0 mi SSE 11.5 mph - 0.00 in Rain Light Rain
4:53 PM 72.0 °F 57.9 °F 61% 30.01 in 10.0 mi South 8.1 mph - 0.00 in   Mostly Cloudy
5:53 PM 71.1 °F 60.1 °F 68% 30.00 in 10.0 mi SSE 8.1 mph - N/A   Partly Cloudy
6:53 PM 72.0 °F 60.1 °F 66% 30.01 in 10.0 mi South 3.5 mph - N/A   Scattered Clouds
7:53 PM 73.0 °F 55.9 °F 55% 30.02 in 10.0 mi SSW 5.8 mph - N/A   Clear
8:53 PM 70.0 °F 57.9 °F 65% 30.03 in 10.0 mi SSE 6.9 mph - N/A   Clear
9:53 PM 66.9 °F 59.0 °F 76% 30.05 in 10.0 mi SSE 6.9 mph - N/A   Clear
10:53 PM 64.0 °F 60.1 °F 87% 30.04 in 10.0 mi East 4.6 mph - N/A   Clear
11:53 PM 64.9 °F 60.1 °F 84% 30.06 in 10.0 mi South 5.8 mph - N/A   Partly Cloudy